Weather History for Moses Lake, WA

Change the Weather History Date:

Friday, August 3, 2012

  Actual Average Record
Temperature  
Mean Temperature 74 °F 74 °F  
Max Temperature 91 °F 91 °F 100 °F (1998)
Min Temperature 56 °F 57 °F 48 °F (2002)
Degree Days  
Heating Degree Days 0 0  
Month to date heating degree days 0 0  
Since 1 June heating degree days 92 63  
Since 1 July heating degree days 6 8  
Cooling Degree Days 9 9  
Month to date cooling degree days 28 27  
Year to date cooling degree days 420 381  
Since 1 June cooling degree days 393 356  
Growing Degree Days 24 (Base 50)    
Moisture  
Dew Point 38 °F    
Average Humidity 31    
Maximum Humidity 48    
Minimum Humidity 14    
Precipitation  
Precipitation 0.00 in 0.01 in 0.18 in (2003)
Month to date precipitation 0.00 0.02  
Year to date precipitation 5.58 5.20  
Sea Level Pressure  
Sea Level Pressure 30.02 in    
Wind  
Wind Speed 5 mph (North)    
Max Wind Speed 20 mph    
Max Gust Speed 24 mph    
Visibility 10 miles    
Events      
T = Trace of Precipitation, MM = Missing Value Source: NWS Daily Summary

Daily Weather History Graph

Daily Weather History Graph

Search for Another Location

Airport:

Trip Planner

Search our weather history database for the weather conditions in past years. The results will help you decide how hot, cold, wet, or windy it might be!

Date:

Astronomy

Aug. 03, 2012 Rise Set
Actual Time 5:39 AM PDT 8:26 PM PDT
Civil Twilight 5:03 AM PDT 9:01 PM PDT
Nautical Twilight 4:18 AM PDT 9:46 PM PDT
Astronomical Twilight 3:25 AM PDT 10:39 PM PDT
Moon 8:53 PM PDT (8/3) 7:39 AM PDT (8/3)
Length of Visible Light 15h 57m
Length of Day
14h 47m
Full, 97% of the Moon is Illuminated
Aug 3
Full
Aug 9
Last Quarter
Aug 17
New
Aug 24
First Quarter
Aug 31
Full

Hourly Weather History & Observations

Time (PDT) Temp. Dew Point Humidity Pressure Visibility Wind Dir Wind Speed Gust Speed Precip Events Conditions
12:52 AM 66.9 °F 41.0 °F 39% 30.00 in 10.0 mi North 6.9 mph - N/A   Clear
1:52 AM 62.1 °F 39.9 °F 44% 30.01 in 10.0 mi NNW 6.9 mph - N/A   Clear
2:52 AM 61.0 °F 39.0 °F 44% 30.02 in 10.0 mi Calm Calm - N/A   Partly Cloudy
3:52 AM 60.1 °F 39.0 °F 46% 30.03 in 10.0 mi Calm Calm - N/A   Clear
4:52 AM 60.1 °F 37.0 °F 42% 30.04 in 10.0 mi NW 4.6 mph - N/A   Clear
5:52 AM 59.0 °F 37.9 °F 46% 30.04 in 10.0 mi WNW 5.8 mph - N/A   Clear
6:52 AM 62.1 °F 43.0 °F 50% 30.06 in 10.0 mi Calm Calm - N/A   Clear
7:52 AM 70.0 °F 39.0 °F 32% 30.06 in 10.0 mi North 5.8 mph - N/A   Clear
8:52 AM 75.9 °F 39.9 °F 27% 30.07 in 10.0 mi North 8.1 mph - N/A   Clear
9:52 AM 80.1 °F 37.0 °F 21% 30.06 in 10.0 mi NNE 13.8 mph - N/A   Clear
10:52 AM 81.0 °F 37.0 °F 21% 30.07 in 10.0 mi North 9.2 mph - N/A   Clear
11:52 AM 82.9 °F 36.0 °F 19% 30.06 in 10.0 mi North 11.5 mph 16.1 mph N/A   Clear
12:52 PM 84.9 °F 34.0 °F 16% 30.05 in 10.0 mi NNE 5.8 mph - N/A   Clear
1:52 PM 86.0 °F 34.0 °F 16% 30.04 in 10.0 mi Calm Calm - N/A   Clear
2:52 PM 87.1 °F 35.1 °F 16% 30.02 in 10.0 mi Variable 3.5 mph - N/A   Clear
3:52 PM 89.1 °F 34.0 °F 14% 30.00 in 10.0 mi Variable 4.6 mph - N/A   Clear
4:52 PM 89.1 °F 35.1 °F 15% 29.99 in 10.0 mi North 9.2 mph - N/A   Clear
5:52 PM 89.1 °F 34.0 °F 14% 29.98 in 10.0 mi Variable 4.6 mph - N/A   Clear
6:52 PM 88.0 °F 34.0 °F 15% 29.96 in 10.0 mi Calm Calm - N/A   Clear
7:52 PM 84.0 °F 37.9 °F 19% 29.96 in 10.0 mi SW 8.1 mph - N/A   Clear
8:52 PM 80.1 °F 41.0 °F 25% 29.97 in 10.0 mi WSW 5.8 mph - N/A   Clear
9:52 PM 75.9 °F 42.1 °F 30% 29.98 in 10.0 mi Calm Calm - N/A   Clear
10:52 PM 71.1 °F 43.0 °F 36% 29.99 in 10.0 mi ENE 5.8 mph - N/A   Clear
11:52 PM 68.0 °F 43.0 °F 40% 29.99 in 10.0 mi NE 3.5 mph - N/A   Clear